Regional Weather Roundup
Issued by NWS

Home | Current Version | Previous Version | Graphics & Text | Print | Product List | Glossary Off
Versions: 1 2 3 4 5 6 7 8 9 10 11 12 13 14 15 16 17 18 19 20 21 22 23 24 25 26 27 28 29 30 31 32 33 34 35 36 37 38 39 40 41 42 43 44 45 46 47 48 49 50

000
ASUS43 KOAX 280210
RWRNE

WEATHER ROUNDUP FOR NEBRASKA
NATIONAL WEATHER SERVICE OMAHA NE
900 PM CDT THU AUG 27 2015

NOTES: SATELLITE DATA IS BEING USED TO AUGMENT CLOUD COVER ABOVE
       12000 FEET.
       "FAIR" INDICATES FEW OR NO CLOUDS BELOW 12,000 FEET WITH NO
       SIGNIFICANT WEATHER AND/OR OBSTRUCTIONS TO VISIBILITY.

  * THESE STATIONS DO NOT REPORT WEATHER SUCH AS RAIN...SNOW OR FOG.

NEZ001>004-019>022-054>056-280300-
NEBRASKA PANHANDLE

CITY           SKY/WX    TMP DP  RH WIND       PRES   REMARKS
SCOTTSBLUFF    PTCLDY    68  57  68 NE7       30.04R
ALLIANCE       CLEAR     67  57  70 N6        30.03R
CHADRON        CLEAR     67  57  70 E6        30.01R
KIMBALL        MOCLDY    65  55  70 NW5       30.09R
SIDNEY         PTCLDY    70  55  59 NE7       30.06R
$$

NEZ057>060-069>072-079>082-280300-
SOUTHWEST NEBRASKA

CITY           SKY/WX    TMP DP  RH WIND       PRES   REMARKS
NORTH PLATTE   PTCLDY    75  65  70 N12       29.89R
IMPERIAL       MOCLDY    76  63  64 N8        29.95R
LEXINGTON      PTCLDY    78  70  76 SE6       29.82S
MCCOOK         MOCLDY    81  59  47 NW10      29.86R
OGALLALA       CLEAR     74  60  61 N15       29.96R
$$

NEZ005>010-023>029-035>040-094-280300-
NORTH CENTRAL NEBRASKA

CITY           SKY/WX    TMP DP  RH WIND       PRES   REMARKS
AINSWORTH      CLOUDY    74  68  82 N9        29.91R
BROKEN BOW     MOCLDY    70  67  90 W3        29.85S
O`NEILL        RAIN      71  68  91 E10G20    29.90R
ORD            CLOUDY    77  67  71 S8        29.82S
THEDFORD       PTCLDY    73  67  83 N6        29.92R
$$

NEZ041-046>049-061>064-073>077-083>087-280300-
SOUTH CENTRAL NEBRASKA

CITY           SKY/WX    TMP DP  RH WIND       PRES   REMARKS
GRAND ISLAND   CLOUDY    76  65  68 S23G33    29.80F
AURORA         CLOUDY    77  64  65 S18G25    29.81F
HASTINGS       CLOUDY    76  66  71 S16       29.83S
HEBRON         CLOUDY    74  63  67 S17G25    29.86F
HOLDREGE       MOCLDY    75  64  67 S13G21    29.82S
KEARNEY *      CLOUDY    75  64  69 S17G24    29.81F
YORK           MOCLDY    77  64  65 S17G26    29.82F
$$

NEZ011>018-030>034-042>045-280300-
NORTHEAST NEBRASKA

CITY           SKY/WX    TMP DP  RH WIND       PRES   REMARKS
NORFOLK        LGT RAIN  73  69  87 E9        29.89R
ALBION         CLOUDY    74  67  78 E14       29.83S
BLAIR          CLOUDY    74  65  74 SE12G18   29.90S
COLUMBUS *     CLOUDY   N/A N/A N/A E6        29.85R
FREMONT        CLOUDY    76  65  70 SE8       29.89R
TEKAMAH        CLOUDY    75  68  78 E6        29.89S
WAYNE          CLOUDY    73  68  87 E13       29.92S
$$

NEZ050>053-065>068-078-088>093-280300-
SOUTHEAST NEBRASKA

CITY           SKY/WX    TMP DP  RH WIND       PRES   REMARKS
LINCOLN        CLOUDY    79  64  60 S13       29.89R
OMAHA EPPLEY   CLOUDY    75  67  76 SE17      29.91S
BEATRICE       CLOUDY    74  64  71 S20       29.90F
FALLS CITY     CLOUDY    72  68  87 SE8       29.96R
NEBRASKA CITY  CLOUDY    73  64  72 SE14      29.94R
PLATTSMOUTH    CLOUDY    73  66  79 SE10      29.93R
$$

NEZ044-045-051>053-067-280300-
OMAHA AREA

CITY           SKY/WX    TMP DP  RH WIND       PRES   REMARKS
OMAHA EPPLEY   CLOUDY    75  67  76 SE17      29.91S
BLAIR          CLOUDY    74  65  74 SE12G18   29.90S
FREMONT        CLOUDY    76  65  70 SE8       29.89R
MILLARD        CLOUDY    76  68  76 SE9       29.91R
OFFUTT AFB     CLOUDY    73  67  82 E14G20    29.91R
PLATTSMOUTH    CLOUDY    73  66  79 SE10      29.93R
WAHOO          FAIR      74  65  74 SE14G20   29.88R
$$



USA.gov is the U.S. government's official web portal to all federal, state and local government web resources and services.